Location: Unspecified
(0.0000°N, 0.0000°E)
Time: 00:40:16
(UTC+00:00)

QIANFAN-31 - Pass Details

Date: 11 March 2026
Orbit: 1037 x 1049 km, 89.0° (Epoch: 14 April)

Event Time Altitude Azimuth Distance (km) Brightness Sun altitude
Rises 04:56:46 0° 13° (NNE) 3,778 ? -18.3°
Reaches altitude 10° 04:59:22 10° 18° (NNE) 2,829 ? -17.6°
Maximum altitude 05:05:37 52° 93° (E) 1,272 ? -16.1°
Drops below altitude 10° 05:11:53 10° 168° (SSE) 2,844 ? -14.5°
Sets 05:14:30 0° 172° (S) 3,800 ? -13.9°
